| time (UTC) | temp F | wind direction | speed knots | gust knots | rain 1hr in | rain 24hr in | rain mn in | humidity % | barometer mb |
| 20260905120034 | 68 | 0 | 0.0 | 0.0 | 0.00 | 0.00 | 0.00 | 87 | 1011.7 |
| 20260905114541 | 68 | 0 | 0.0 | 0.0 | 0.00 | 0.00 | 0.00 | 87 | 1011.5 |
| 20260905113039 | 68 | 0 | 0.0 | 0.0 | 0.00 | 0.00 | 0.00 | 87 | 1011.3 |
| 20260905111540 | 68 | 0 | 0.0 | 0.0 | 0.00 | 0.00 | 0.00 | 86 | 1011.2 |
| 20260905110031 | 68 | 0 | 0.0 | 0.0 | 0.00 | 0.00 | 0.00 | 86 | 1011.1 |
| 20260905104530 | 68 | 0 | 0.0 | 0.0 | 0.00 | 0.00 | 0.00 | 86 | 1010.9 |
| 20260905103033 | 68 | 0 | 0.0 | 0.0 | 0.00 | 0.00 | 0.00 | 85 | 1010.7 |
| 20260905101539 | 68 | 0 | 0.0 | 0.0 | 0.00 | 0.00 | 0.00 | 85 | 1010.6 |
| 20260905100034 | 69 | 0 | 0.0 | 0.0 | 0.00 | 0.00 | 0.00 | 85 | 1010.6 |
| 20260905094531 | 69 | 0 | 0.0 | 0.0 | 0.00 | 0.00 | 0.00 | 86 | 1010.5 |
| 20260905093035 | 69 | 0 | 0.0 | 0.0 | 0.00 | 0.00 | 0.00 | 85 | 1010.7 |
| 20260905091531 | 70 | 0 | 0.0 | 0.0 | 0.00 | 0.00 | 0.00 | 84 | 1010.6 |
| 20260905090035 | 70 | 0 | 0.0 | 0.0 | 0.00 | 0.00 | 0.00 | 83 | 1010.5 |
| 20260905084556 | 70 | 0 | 0.0 | 0.0 | 0.00 | 0.00 | 0.00 | 81 | 1010.5 |
| 20260905083031 | 70 | 0 | 0.0 | 0.0 | 0.00 | 0.00 | 0.00 | 80 | 1010.3 |
| 20260905081531 | 70 | 0 | 0.0 | 0.0 | 0.00 | 0.00 | 0.00 | 81 | 1010.1 |
| 20260905080034 | 70 | 0 | 0.0 | 0.0 | 0.00 | 0.00 | 0.00 | 82 | 1010.3 |
| 20260905074533 | 70 | 0 | 0.0 | 0.0 | 0.00 | 0.00 | 0.00 | 85 | 1010.4 |
| 20260905073035 | 70 | 0 | 0.0 | 0.0 | 0.00 | 0.00 | 0.00 | 84 | 1010.3 |
| 20260905071531 | 70 | 0 | 0.0 | 0.0 | 0.00 | 0.00 | 0.00 | 85 | 1010.6 |
| 20260905070033 | 70 | 0 | 0.0 | 0.0 | 0.00 | 0.00 | 0.00 | 87 | 1010.6 |
| 20260905064532 | 70 | 0 | 0.0 | 0.0 | 0.00 | 0.00 | 0.00 | 86 | 1010.5 |
| 20260905063032 | 70 | 0 | 0.0 | 0.0 | 0.00 | 0.00 | 0.00 | 86 | 1010.6 |
| 20260905061533 | 71 | 0 | 0.0 | 0.0 | 0.00 | 0.00 | 0.00 | 87 | 1010.6 |
| 20260905060035 | 71 | 0 | 0.0 | 0.0 | 0.00 | 0.00 | 0.00 | 88 | 1010.7 |
| 20260905054531 | 71 | 0 | 0.0 | 0.0 | 0.00 | 0.02 | 0.00 | 89 | 1010.8 |
| 20260905053032 | 71 | 0 | 0.0 | 0.0 | 0.00 | 0.02 | 0.00 | 89 | 1011.0 |
| 20260905051537 | 71 | 0 | 0.0 | 0.0 | 0.00 | 0.02 | 0.00 | 88 | 1011.3 |
| 20260905050034 | 71 | 0 | 0.0 | 0.0 | 0.00 | 0.02 | 0.00 | 88 | 1011.2 |
| 20260905044535 | 72 | 0 | 0.0 | 0.0 | 0.00 | 0.02 | 0.00 | 88 | 1011.1 |
| 20260905043033 | 72 | 0 | 0.0 | 0.0 | 0.00 | 0.02 | 0.00 | 90 | 1011.2 |
| 20260905041536 | 72 | 0 | 0.0 | 0.0 | 0.00 | 0.02 | 0.00 | 90 | 1011.3 |
| 20260905040034 | 72 | 0 | 0.0 | 0.0 | 0.00 | 0.02 | 0.00 | 90 | 1011.4 |
| 20260905034539 | 72 | 0 | 0.0 | 0.0 | 0.00 | 0.02 | 0.02 | 91 | 1011.4 |
| 20260905033033 | 72 | 0 | 0.0 | 0.0 | 0.00 | 0.02 | 0.02 | 91 | 1011.4 |
| 20260905031537 | 73 | 0 | 0.0 | 0.0 | 0.00 | 0.02 | 0.02 | 91 | 1011.3 |
| 20260905030037 | 73 | 0 | 0.0 | 0.0 | 0.00 | 0.02 | 0.02 | 90 | 1011.3 |
| 20260905024534 | 73 | 0 | 0.0 | 0.0 | 0.00 | 0.02 | 0.02 | 90 | 1011.1 |
| 20260905023039 | 73 | 0 | 0.0 | 0.0 | 0.00 | 0.02 | 0.02 | 91 | 1011.3 |
| 20260905021540 | 73 | 0 | 0.0 | 0.0 | 0.00 | 0.02 | 0.02 | 90 | 1011.2 |
| 20260905020034 | 73 | 0 | 0.0 | 0.0 | 0.00 | 0.02 | 0.02 | 90 | 1011.3 |
| 20260905014534 | 73 | 0 | 0.0 | 0.0 | 0.00 | 0.02 | 0.02 | 90 | 1011.4 |
| 20260905013033 | 74 | 0 | 0.0 | 0.0 | 0.00 | 0.02 | 0.02 | 90 | 1011.3 |
| 20260905011536 | 74 | 0 | 0.0 | 0.0 | 0.00 | 0.02 | 0.02 | 90 | 1011.3 |
| 20260905010033 | 74 | 0 | 0.0 | 0.0 | 0.00 | 0.02 | 0.02 | 90 | 1011.3 |
| 20260905004540 | 74 | 0 | 0.0 | 0.0 | 0.00 | 0.02 | 0.02 | 89 | 1011.2 |
| 20260905003034 | 74 | 0 | 0.0 | 0.0 | 0.00 | 0.02 | 0.02 | 88 | 1011.2 |
| 20260905001531 | 75 | 0 | 0.0 | 0.0 | 0.00 | 0.02 | 0.02 | 87 | 1011.0 |
| 20260905000033 | 75 | 0 | 0.0 | 0.0 | 0.00 | 0.02 | 0.02 | 87 | 1010.8 |
| 20260904234545 | 76 | 0 | 0.0 | 0.0 | 0.00 | 0.02 | 0.02 | 86 | 1010.7 |
| 20260904233051 | 76 | 0 | 0.0 | 0.0 | 0.00 | 0.02 | 0.02 | 84 | 1010.7 |
| 20260904231534 | 77 | 0 | 0.0 | 0.0 | 0.00 | 0.02 | 0.02 | 85 | 1010.6 |
| 20260904230035 | 77 | 0 | 0.0 | 0.0 | 0.00 | 0.02 | 0.02 | 84 | 1010.7 |
| 20260904224541 | 78 | 0 | 0.0 | 0.0 | 0.00 | 0.03 | 0.02 | 83 | 1010.7 |
| 20260904223040 | 78 | 0 | 0.0 | 0.0 | 0.00 | 0.03 | 0.02 | 81 | 1011.0 |
| 20260904221533 | 79 | 0 | 0.0 | 0.0 | 0.00 | 0.03 | 0.02 | 81 | 1011.0 |
| 20260904220034 | 80 | 0 | 0.0 | 0.9 | 0.00 | 0.03 | 0.02 | 80 | 1011.2 |
| 20260904214540 | 81 | 0 | 0.0 | 0.0 | 0.00 | 0.03 | 0.02 | 77 | 1010.9 |
| 20260904213036 | 82 | 0 | 0.0 | 2.6 | 0.00 | 0.03 | 0.02 | 72 | 1011.0 |
| 20260904211532 | 82 | 0 | 0.0 | 1.7 | 0.00 | 0.03 | 0.02 | 72 | 1010.9 |
| 20260904210040 | 82 | 0 | 0.0 | 2.6 | 0.00 | 0.03 | 0.02 | 69 | 1010.8 |
| 20260904204534 | 82 | 0 | 0.0 | 0.9 | 0.00 | 0.03 | 0.02 | 70 | 1011.0 |
| 20260904203033 | 82 | 0 | 0.0 | 3.5 | 0.00 | 0.03 | 0.02 | 72 | 1011.1 |
| 20260904201535 | 82 | 0 | 0.0 | 1.7 | 0.00 | 0.03 | 0.02 | 75 | 1011.1 |
| 20260904200035 | 82 | 0 | 0.0 | 5.2 | 0.00 | 0.03 | 0.02 | 70 | 1011.4 |
| 20260904194540 | 82 | 0 | 0.0 | 3.5 | 0.00 | 0.03 | 0.02 | 69 | 1011.5 |
| 20260904193044 | 82 | 0 | 0.0 | 2.6 | 0.00 | 0.03 | 0.02 | 72 | 1011.8 |
| 20260904191533 | 82 | 281 | 0.0 | 5.2 | 0.00 | 0.03 | 0.02 | 71 | 1012.0 |
| 20260904190036 | 82 | 0 | 0.0 | 1.7 | 0.00 | 0.03 | 0.02 | 71 | 1012.1 |
| 20260904184538 | 81 | 262 | 0.0 | 3.5 | 0.00 | 0.03 | 0.02 | 71 | 1012.3 |
| 20260904183032 | 80 | 0 | 0.0 | 0.0 | 0.00 | 0.03 | 0.02 | 74 | 1012.4 |
| 20260904181531 | 80 | 0 | 0.0 | 0.0 | 0.00 | 0.03 | 0.02 | 72 | 1012.4 |
| 20260904180032 | 81 | 0 | 0.0 | 0.0 | 0.00 | 0.03 | 0.02 | 75 | 1012.7 |
| 20260904174536 | 81 | 0 | 0.0 | 0.0 | 0.00 | 0.03 | 0.02 | 75 | 1012.5 |
| 20260904173042 | 81 | 0 | 0.0 | 1.7 | 0.00 | 0.03 | 0.02 | 72 | 1012.4 |
| 20260904171532 | 81 | 0 | 0.0 | 2.6 | 0.00 | 0.03 | 0.02 | 71 | 1012.2 |
| 20260904170033 | 81 | 250 | 0.9 | 4.3 | 0.00 | 0.03 | 0.02 | 71 | 1012.4 |
| 20260904164534 | 81 | 0 | 0.0 | 3.5 | 0.00 | 0.03 | 0.02 | 71 | 1012.5 |
| 20260904163036 | 81 | 286 | 0.0 | 7.8 | 0.00 | 0.03 | 0.02 | 74 | 1012.5 |
| 20260904161532 | 80 | 298 | 0.0 | 5.2 | 0.00 | 0.03 | 0.02 | 74 | 1012.5 |
| 20260904160040 | 81 | 0 | 0.0 | 5.2 | 0.00 | 0.03 | 0.02 | 73 | 1012.6 |
| 20260904154533 | 80 | 276 | 0.9 | 5.2 | 0.00 | 0.03 | 0.02 | 75 | 1012.6 |
| 20260904153043 | 80 | 0 | 0.0 | 3.5 | 0.00 | 0.03 | 0.02 | 74 | 1012.7 |
| 20260904151536 | 79 | 0 | 0.0 | 3.5 | 0.00 | 0.03 | 0.02 | 76 | 1012.7 |
| 20260904150036 | 79 | 275 | 0.0 | 2.6 | 0.00 | 0.03 | 0.02 | 78 | 1012.7 |
| 20260904144534 | 79 | 0 | 1.7 | 6.1 | 0.00 | 0.03 | 0.02 | 78 | 1012.9 |
| 20260904143033 | 78 | 302 | 1.7 | 5.2 | 0.00 | 0.03 | 0.02 | 80 | 1012.8 |
| 20260904141544 | 78 | 0 | 0.9 | 3.5 | 0.00 | 0.03 | 0.02 | 81 | 1012.6 |
| 20260904140032 | 78 | 284 | 1.7 | 6.1 | 0.00 | 0.03 | 0.02 | 82 | 1012.5 |
| 20260904134534 | 77 | 0 | 0.0 | 3.5 | 0.00 | 0.03 | 0.02 | 83 | 1012.8 |
| 20260904133033 | 76 | 0 | 0.0 | 2.6 | 0.00 | 0.03 | 0.02 | 86 | 1012.6 |
| 20260904131533 | 75 | 0 | 0.0 | 5.2 | 0.00 | 0.03 | 0.02 | 88 | 1012.6 |
| 20260904130033 | 75 | 0 | 0.0 | 3.5 | 0.00 | 0.03 | 0.02 | 91 | 1012.6 |
| 20260904124537 | 74 | 0 | 0.0 | 3.5 | 0.00 | 0.03 | 0.02 | 92 | 1012.6 |
| 20260904123033 | 73 | 0 | 0.0 | 2.6 | 0.00 | 0.03 | 0.02 | 95 | 1012.8 |
| 20260904121533 | 73 | 0 | 0.0 | 5.2 | 0.00 | 0.03 | 0.02 | 95 | 1012.5 |